Dewpoint
44 39 41 41 41 40 37 34 35 35 32 33 32 31 30 30 29 30 29 56 59 58 56 57 57 57 58 59 63 63 63 62 61 60 60 59 57 56 56 56 57 57 58 59 60 62 63 64 65 66 67 68 69 69 69 70 70 71 71 71 71 72 71 71 71 72 71 71 71 71 70 70 71 72 72 73 73 73 72 73 74 74 74 74 75 75
44 42 42 42 41 40 39 37 35 34 34 33 32 31 30 30 28 30 29 43 59 57 56 57 57 57 57 59 62 63 62 62 61 60 59 59 57 56 56 56 57 57 58 59 59 61 62 63 65 66 67 68 68 69 69 69 70 71 71 71 71 72 71 71 71 71 71 71 71 70 70 70 71 72 73 73 73 73 73 75 75 74 74 74 75 75
40 40 41 43 43 41 40 36 34 34 34 32 31 31 29 29 29 29 32 51 56 56 53 55 55 56 57 59 61 62 62 62 61 60 59 59 58 57 57 57 57 57 58 58 58 60 61 62 64 65 67 67 68 68 68 69 70 70 70 71 71 72 71 71 71 71 71 71 71 70 70 71 71 72 73 73 74 74 74 75 75 75 75 75 75 75
39 39 40 42 41 40 39 37 35 34 33 31 30 30 29 29 27 26 23 53 56 56 52 53 54 53 57 60 60 62 62 62 62 61 60 60 59 57 57 57 57 57 58 58 58 59 60 62 63 64 66 67 67 68 68 69 69 70 71 71 71 71 71 71 71 72 71 71 71 71 71 71 72 71 74 74 75 75 75 75 76 76 75 75 75 75
38 39 40 40 40 39 38 38 35 33 33 32 31 30 29 29 27 27 23 53 55 53 57 53 51 51 55 57 59 61 62 62 61 61 61 61 61 60 61 60 59 58 58 58 58 59 60 61 62 63 65 66 67 67 67 68 69 69 70 70 71 71 71 71 72 72 71 72 70 71 71 72 72 73 73 73 73 74 75 75 75 75 76 76 75 76
36 37 37 36 36 37 37 35 35 34 32 31 31 30 29 29 29 28 27 49 47 48 52 50 44 46 51 56 57 60 61 61 61 60 60 60 61 61 60 59 60 60 59 59 58 58 59 60 62 63 64 65 66 66 67 68 69 69 70 70 71 71 71 71 71 72 71 71 70 69 69 69 69 70 71 71 72 73 74 74 75 76 76 76 76 76
36 37 37 36 35 34 34 34 34 33 32 30 31 31 30 30 29 27 22 33 32 38 44 50 45 43 47 53 56 59 60 60 61 60 60 60 61 61 60 60 59 59 59 59 59 59 58 60 61 62 63 65 65 66 67 67 68 69 69 70 70 71 71 71 71 71 72 71 70 69 68 68 69 69 70 72 72 73 74 75 75 76 76 76 76 75
32 21 34 35 35 32 31 31 31 32 30 29 31 30 30 30 29 27 22 27 24 41 45 51 47 43 43 46 54 58 59 59 60 60 60 60 60 60 60 60 59 59 59 59 59 59 59 59 60 62 63 64 65 65 66 67 68 68 69 70 70 70 71 71 71 71 71 70 70 69 68 69 68 68 70 71 72 73 75 75 75 75 76 77 76 76
21 16 30 31 32 30 30 31 32 32 30 29 29 27 27 28 28 26 23 20 21 25 22 44 49 43 43 46 53 57 56 57 58 59 59 60 60 60 60 60 60 59 59 59 59 59 59 59 60 61 62 63 64 65 65 66 67 68 69 70 70 70 70 70 71 71 71 71 70 69 68 68 69 69 70 72 73 73 75 74 75 75 76 76 77 76
16 16 15 17 24 28 29 28 31 31 29 30 26 26 24 22 21 19 18 18 24 18 21 38 47 41 41 44 54 56 55 55 57 58 59 59 60 60 60 60 60 59 59 59 59 59 60 59 59 60 62 63 63 64 66 66 66 67 68 69 69 69 69 70 70 71 70 70 70 69 68 68 68 70 70 71 72 73 74 73 74 75 75 75 76 76
13 34 21 18 17 16 17 18 26 30 30 28 24 23 22 28 28 36 27 24 21 17 21 29 46 41 36 44 53 54 54 54 55 57 58 59 59 60 60 60 60 59 59 59 59 60 60 60 59 60 61 62 63 64 65 65 66 67 68 69 69 69 69 70 70 70 70 70 70 69 68 68 68 68 69 70 71 72 73 73 73 74 74 75 75 76
15 16 13 17 24 20 19 18 19 24 20 25 25 25 23 27 27 26 28 28 18 18 25 26 45 43 31 38 44 54 54 55 55 55 57 58 58 59 60 60 60 59 59 58 59 59 59 60 59 59 60 61 62 63 64 64 65 66 67 68 69 69 69 69 69 70 69 70 70 69 68 68 68 68 68 69 70 72 72 72 72 73 74 74 75 75
14 15 17 17 39 18 16 14 15 15 14 21 25 24 21 23 21 19 21 17 17 17 21 31 44 42 41 42 38 40 41 43 52 56 56 57 58 58 59 59 60 60 59 58 58 59 59 59 59 59 60 61 62 63 63 63 64 65 67 68 68 68 69 69 69 69 69 69 69 69 68 68 68 68 68 68 70 71 72 72 72 72 73 73 73 74
15 16 17 17 16 21 18 13 14 17 14 13 22 22 19 17 17 15 22 21 19 19 19 23 42 40 37 32 44 47 45 47 47 50 54 56 57 58 59 59 59 59 59 58 58 58 58 59 59 59 59 60 61 62 62 63 64 65 66 67 68 68 68 69 69 69 69 69 69 69 69 68 69 67 67 68 68 70 72 72 72 72 72 73 73 73
10 12 14 16 14 18 17 17 17 15 14 14 21 19 21 23 18 17 19 16 15 18 19 21 40 38 31 36 44 48 51 52 54 54 54 54 56 58 58 59 59 59 59 59 58 58 58 58 59 58 59 60 61 61 62 62 64 65 66 67 68 68 68 69 69 69 69 69 69 69 69 68 68 67 67 67 68 69 70 71 71 72 72 73 73 73
16 16 17 19 18 19 17 18 22 16 17 17 20 23 20 21 33 18 23 21 21 17 19 30 29 26 30 36 42 45 53 54 54 54 55 55 55 57 58 58 58 59 59 59 59 58 58 58 59 59 58 59 60 61 61 62 63 64 65 67 67 68 68 68 69 69 69 69 69 69 69 68 68 69 68 68 69 69 70 71 71 71 72 72 73 73
27 15 18 20 20 16 17 22 18 20 18 21 20 21 20 23 21 27 38 34 25 20 17 28 21 26 33 29 41 51 53 53 54 54 54 54 56 57 58 58 58 58 59 59 59 58 58 57 58 58 58 58 59 60 61 62 63 64 65 66 67 68 68 68 69 69 69 69 69 69 69 68 68 68 67 66 67 67 69 70 70 71 71 72 73 73
17 15 18 19 15 18 18 20 23 18 22 20 20 21 23 24 24 23 17 21 21 16 18 20 27 34 34 20 37 51 52 53 53 53 53 54 55 56 57 58 58 58 59 59 60 60 59 58 58 58 58 58 58 59 60 62 62 63 65 66 66 67 67 68 68 69 69 69 68 68 68 68 68 67 67 66 66 66 68 69 70 70 71 71 71 72
18 14 15 20 19 19 20 16 14 16 21 19 19 23 24 21 20 26 21 16 16 16 16 20 30 36 35 34 43 51 51 51 52 53 53 54 55 56 58 59 58 59 59 59 59 60 59 58 58 58 57 58 58 60 60 61 61 62 64 65 66 66 67 67 68 68 69 69 68 68 68 68 68 67 67 67 67 67 67 67 68 68 70 70 71 73
25 12 16 18 18 18 20 15 15 16 21 20 21 17 19 27 28 24 24 24 19 17 16 16 34 32 37 35 46 50 50 50 51 52 53 54 54 55 57 60 59 58 59 59 59 59 60 59 58 57 58 57 58 58 59 60 60 61 63 65 65 66 67 67 68 69 69 68 68 68 68 68 68 68 67 67 67 66 66 66 67 67 68 69 71 71
21 24 12 15 18 14 12 18 17 19 19 16 14 14 15 18 22 27 27 24 20 21 20 22 29 32 35 36 47 51 50 49 50 51 53 54 54 54 56 59 59 58 59 59 59 60 60 60 59 58 58 58 58 59 59 59 60 60 62 63 65 66 66 66 67 68 68 69 69 69 68 67 68 67 67 67 67 66 66 66 67 67 67 69 70 71
22 23 13 18 12 14 15 20 20 21 19 15 15 14 15 14 18 23 21 24 26 24 20 23 30 34 37 44 50 52 51 49 49 50 51 53 54 54 55 57 59 58 59 60 60 60 60 60 60 59 58 58 58 59 59 58 59 60 61 62 64 64 65 66 67 68 68 69 68 68 68 67 67 67 67 66 66 66 65 65 66 67 68 67 68 70
24 28 21 12 18 17 16 17 23 24 18 16 16 15 15 18 20 21 19 19 25 26 31 28 27 31 41 52 53 53 52 50 49 49 50 51 52 54 55 56 57 59 60 59 60 60 60 60 60 59 60 59 58 58 58 58 59 59 61 62 63 64 65 65 66 67 68 68 68 68 68 67 67 67 66 66 66 65 65 65 65 67 67 66 67 70
38 21 19 24 23 24 20 22 22 21 18 17 18 18 15 14 14 15 20 20 26 26 24 26 28 31 36 51 53 53 53 52 51 50 50 50 51 52 54 55 56 57 58 60 61 61 62 62 61 61 60 59 59 59 59 58 59 59 60 61 62 63 64 65 66 66 68 68 68 68 68 67 67 66 65 65 65 65 65 65 65 66 66 66 66 68
16 19 16 15 16 19 19 21 19 21 21 21 18 18 19 16 15 19 24 31 27 26 23 26 21 28 34 50 52 52 52 52 51 51 51 51 51 51 53 54 55 57 57 58 59 62 62 64 62 62 62 61 60 59 59 59 59 59 60 61 62 63 63 64 66 66 67 67 67 67 67 67 66 65 65 65 64 64 64 65 65 66 65 65 65 66
22 25 21 13 11 4 9 12 16 18 19 22 22 19 20 17 15 16 18 26 22 33 27 25 23 29 33 46 51 50 51 52 52 52 52 52 52 52 53 53 54 56 57 57 58 59 61 64 64 64 64 63 60 59 60 60 59 58 59 60 61 62 63 64 65 65 66 66 66 67 66 66 66 65 65 64 64 64 64 64 64 65 66 65 64 65
26 28 25 22 19 16 18 22 26 31 22 18 19 20 20 20 18 25 26 25 17 25 23 27 28 28 25 49 49 49 51 51 52 52 52 52 53 53 53 54 54 55 56 56 57 58 59 61 63 65 65 63 61 60 60 59 59 59 60 60 61 62 63 64 65 66 66 66 66 66 66 66 66 66 65 65 64 64 64 63 63 64 64 66 65 65
29 23 26 26 24 23 26 26 24 27 22 21 20 20 20 20 21 20 17 18 28 22 22 33 37 22 26 49 49 49 51 51 51 51 52 52 53 53 54 55 57 54 55 56 56 57 58 59 61 63 64 65 63 62 61 60 60 60 61 60 61 61 62 63 64 66 66 66 66 67 66 66 65 66 66 66 66 65 64 63 63 64 64 66 66 65
26 22 24 27 23 26 25 23 24 23 22 23 22 21 21 20 23 20 24 25 26 20 16 28 31 27 40 46 50 50 51 51 50 51 51 53 54 54 54 53 53 54 55 55 56 57 57 58 59 61 62 63 65 66 64 62 61 61 61 61 62 61 62 64 65 65 65 66 67 67 67 67 67 66 66 66 66 66 65 64 64 64 64 65 65 65
25 24 25 24 24 24 25 25 26 23 24 22 22 22 21 24 27 25 23 25 23 25 28 26 30 36 44 44 50 50 51 52 52 51 51 51 53 54 54 54 54 54 54 55 56 56 57 58 59 60 61 62 63 65 66 67 65 62 61 61 61 62 63 64 65 65 65 66 66 67 68 68 68 68 67 67 66 66 66 65 64 63 63 64 64 64
25 25 32 26 25 22 25 31 25 25 25 22 22 21 27 32 33 31 36 45 44 38 43 44 42 44 45 45 48 50 52 51 51 51 50 51 53 53 53 54 54 54 54 55 56 56 57 58 58 59 60 61 62 63 64 66 67 68 63 62 62 64 64 64 65 65 65 65 66 67 68 68 68 68 68 68 67 67 67 66 66 65 65 65 64 64
26 22 29 26 19 20 23 25 24 26 24 22 24 25 28 34 36 36 43 45 44 43 44 44 42 43 44 45 46 50 51 51 50 51 51 51 51 52 52 53 53 55 56 55 56 57 57 57 58 58 59 60 62 62 63 64 65 67 68 66 63 63 64 64 64 65 65 65 66 67 68 68 69 69 69 69 68 68 68 67 67 67 66 65 64 65
28 26 22 23 20 20 23 27 26 24 17 16 21 23 26 34 38 41 45 46 45 46 44 43 43 44 44 46 44 45 50 51 51 52 52 52 52 52 51 52 53 55 55 56 57 57 57 57 58 58 59 60 61 61 62 63 64 65 67 68 70 66 65 65 64 65 66 66 67 68 68 69 69 69 69 69 69 69 69 68 68 67 66 65 65 65
29 26 24 27 19 20 23 26 30 17 11 16 24 27 36 36 36 37 40 45 45 46 45 46 45 46 45 45 44 44 45 50 52 53 55 53 52 51 52 52 52 53 54 55 56 57 57 57 59 59 59 60 61 61 61 62 62 64 66 68 70 70 67 66 66 66 67 68 68 68 68 69 69 69 69 69 69 69 69 68 68 67 66 66 67 66
34 29 27 28 21 20 23 25 23 11 12 24 31 34 38 38 38 37 40 45 45 45 45 46 46 47 47 46 46 46 45 49 52 53 54 54 54 52 52 52 52 51 52 54 55 56 57 58 59 59 60 60 61 61 61 61 62 63 65 67 69 70 69 67 67 68 68 68 68 69 69 69 69 69 69 70 70 69 69 69 68 68 67 66 66 66
29 26 30 26 25 23 21 19 2 7 22 29 33 40 40 38 37 39 40 44 44 44 44 43 45 46 47 47 47 47 45 47 52 52 53 54 55 54 53 53 52 51 51 53 55 56 57 57 58 59 60 62 61 61 61 61 62 63 65 67 69 71 71 69 69 68 69 69 69 69 69 69 70 70 70 70 70 70 69 69 69 69 68 68 67 67
29 31 27 22 25 18 20 19 14 24 22 27 35 37 36 34 35 36 32 35 43 42 43 43 43 45 45 47 47 47 46 49 48 45 46 49 53 55 55 55 55 53 51 52 54 56 58 57 58 59 60 60 61 62 62 62 62 63 65 66 68 70 71 71 70 69 70 69 70 71 71 71 70 70 70 71 70 70 70 70 69 69 69 68 67 67
31 27 28 21 23 24 18 21 21 16 16 21 34 40 41 39 39 39 37 36 43 40 42 43 43 44 45 46 47 47 45 47 43 43 45 47 49 53 55 56 57 56 55 53 54 56 57 57 58 60 59 59 60 61 61 61 62 63 65 66 67 69 71 72 71 71 71 71 71 71 72 72 72 71 72 72 71 70 70 70 70 70 70 69 68 67
33 32 27 21 27 23 23 20 19 13 19 26 34 38 38 40 38 40 35 31 42 40 43 44 44 45 45 45 46 47 44 41 42 44 45 47 48 50 53 55 56 57 57 54 55 56 56 56 58 58 59 59 59 60 60 60 61 62 65 65 65 65 66 67 68 70 71 71 72 73 73 73 73 72 72 71 71 71 71 71 71 71 72 71 69 69
31 31 27 25 25 29 23 21 20 22 20 30 35 39 37 39 41 35 24 26 39 40 43 43 43 44 44 44 44 45 44 42 43 44 45 46 48 49 52 54 55 56 56 57 56 56 57 58 57 56 57 58 58 58 57 59 60 62 63 64 64 63 63 64 65 67 69 71 72 72 72 73 73 72 71 71 71 71 71 72 73 72 71 70 70 70
28 29 27 24 25 31 29 23 24 27 34 38 38 39 38 40 34 25 22 34 40 41 42 42 41 43 43 41 42 41 44 45 44 44 44 45 46 47 49 52 55 56 57 57 55 57 56 56 56 56 57 58 59 58 57 58 59 61 62 63 63 62 62 63 65 66 67 69 71 72 72 72 72 72 71 71 71 71 71 72 73 72 71 70 71 72
26 29 32 26 24 25 26 25 26 27 34 38 39 39 41 33 24 23 35 39 39 41 40 40 40 41 41 41 41 41 41 42 43 43 43 43 45 47 48 49 51 54 56 58 58 58 56 55 55 56 57 58 59 59 57 57 59 60 60 61 61 61 62 63 64 65 65 66 67 68 70 73 73 73 72 72 72 71 71 72 72 72 71 71 71 71
26 26 22 25 28 27 25 24 24 19 29 37 39 35 38 29 31 37 38 40 42 40 39 39 40 40 41 40 41 41 41 41 42 42 43 43 44 45 46 47 49 51 54 56 57 57 56 56 55 54 57 58 59 59 58 57 58 58 60 60 60 61 62 63 63 64 65 66 67 68 69 70 72 74 74 74 73 72 72 72 73 73 73 72 71 71
32 25 23 25 29 23 24 23 22 27 34 38 36 31 35 40 39 40 39 37 39 40 40 39 40 40 40 40 40 41 41 42 42 43 44 44 44 44 45 46 47 50 52 55 57 57 57 57 57 56 56 58 59 59 58 58 57 58 59 59 59 60 62 62 63 63 65 66 67 68 69 70 71 73 74 75 75 74 73 73 73 73 73 72 71 71
33 29 28 24 28 27 26 28 31 36 37 38 38 38 38 39 42 41 39 39 38 39 41 40 40 40 40 41 41 41 41 42 43 44 44 44 44 44 45 45 47 48 50 52 54 57 57 58 57 56 57 57 59 57 57 58 58 57 58 59 59 60 61 61 62 62 64 65 67 67 69 70 72 73 74 74 75 74 74 73 73 73 73 72 72 71
36 35 34 34 34 35 35 34 36 38 38 38 40 41 38 39 41 41 40 39 39 39 40 40 40 40 41 41 41 41 42 43 43 44 44 44 44 45 47 46 47 48 49 51 54 55 57 58 58 57 57 57 58 57 58 56 58 57 59 59 60 59 60 60 62 63 64 65 65 67 67 68 70 72 73 74 74 75 74 74 73 73 73 72 72 72
38 38 35 32 34 28 25 34 35 36 38 39 38 39 40 40 40 40 39 39 39 40 40 41 41 41 41 41 41 41 42 43 43 44 45 45 45 46 46 46 46 47 48 50 52 56 56 57 56 56 57 58 58 55 56 56 57 58 58 58 58 59 60 60 62 63 64 64 65 66 66 68 70 72 73 74 74 74 74 74 73 73 73 73 72 72
31 37 34 33 31 30 30 32 34 37 37 38 38 37 38 39 40 41 41 40 41 41 42 42 42 41 42 42 42 42 42 43 43 44 44 45 46 46 46 46 47 47 48 50 52 55 55 55 56 56 56 58 58 56 55 56 57 57 59 57 57 58 59 61 62 62 63 64 65 66 67 68 71 72 71 72 73 73 73 74 74 73 73 72 72 72
34 39 32 33 33 34 34 34 35 36 35 36 38 38 39 39 39 39 40 41 41 41 41 42 43 42 42 42 43 43 43 44 44 45 45 45 46 46 47 47 47 47 48 49 51 55 55 55 56 56 56 58 58 57 56 56 57 58 57 58 58 58 58 60 61 62 63 64 65 66 67 69 69 69 69 70 72 73 74 74 73 73 73 74 74 73
38 34 33 33 30 30 30 31 34 29 29 32 36 39 39 40 40 40 40 41 41 41 41 41 42 43 43 43 43 44 44 45 45 46 45 46 46 46 47 47 47 48 48 49 51 53 54 57 57 56 56 57 59 57 57 57 57 57 56 56 58 58 58 59 60 61 61 62 63 63 64 65 66 67 69 70 71 72 74 71 66 70 74 74 68 65
35 36 35 32 30 28 31 33 35 34 33 33 34 38 40 40 40 40 40 41 41 42 42 42 42 42 43 44 45 45 45 46 46 46 46 46 46 47 47 47 47 47 48 50 51 52 53 54 57 57 57 58 58 57 57 57 57 56 56 56 57 57 57 58 59 60 59 60 61 62 63 64 64 66 68 69 70 71 72 73 73 57 57 64 67 62